Radiation Dose at Monitoring Post of Fukushima Daini Nuclear Power Station
Date,Time,MP-1(microSv/h),MP-2(microSv/h),MP-3(microSv/h),MP-4(microSv/h),MP-5(microSv/h),MP-6(microSv/h),MP-7(microSv/h),Wind Direction,Wind Velocity(m/s),Rain
2016/05/18,00:00,0.426,0.248,0.444,0.396,0.381,0.201,0.172,north-northwest,6.1,No
2016/05/18,00:10,0.428,0.247,0.447,0.395,0.381,0.200,0.170,north-northwest,5.7,No
2016/05/18,00:20,0.427,0.248,0.445,0.393,0.380,0.200,0.172,north-northwest,6.5,No
2016/05/18,00:30,0.428,0.248,0.449,0.396,0.382,0.201,0.172,north-northwest,7.8,No
2016/05/18,00:40,0.430,0.247,0.446,0.393,0.380,0.199,0.172,north-northwest,8.1,No
2016/05/18,00:50,0.426,0.248,0.446,0.395,0.380,0.201,0.170,north-northwest,7.8,No
2016/05/18,01:00,0.429,0.249,0.446,0.395,0.382,0.200,0.171,north-northwest,7.5,No
2016/05/18,01:10,0.427,0.248,0.445,0.395,0.380,0.200,0.172,north-northwest,8.6,No
2016/05/18,01:20,0.428,0.248,0.447,0.397,0.380,0.199,0.172,north-northwest,8.5,No
2016/05/18,01:30,0.428,0.248,0.445,0.394,0.383,0.199,0.171,north-northwest,9.2,No
2016/05/18,01:40,0.427,0.247,0.448,0.398,0.379,0.199,0.171,north-northwest,8.3,No
2016/05/18,01:50,0.429,0.248,0.446,0.395,0.382,0.200,0.170,north-northwest,7.8,No
2016/05/18,02:00,0.426,0.247,0.445,0.393,0.381,0.200,0.171,north-northwest,8.2,No
2016/05/18,02:10,0.431,0.247,0.449,0.397,0.379,0.200,0.172,north-northwest,8.8,No
2016/05/18,02:20,0.428,0.248,0.444,0.394,0.380,0.201,0.172,north-northwest,8.6,No
2016/05/18,02:30,0.427,0.247,0.447,0.393,0.380,0.201,0.172,north-northwest,8.0,No
2016/05/18,02:40,0.428,0.246,0.447,0.397,0.379,0.200,0.172,north-northwest,7.9,No
2016/05/18,02:50,0.428,0.248,0.446,0.394,0.381,0.201,0.172,north-northwest,6.5,No
2016/05/18,03:00,0.429,0.247,0.448,0.395,0.381,0.199,0.172,north-northwest,6.2,No
2016/05/18,03:10,0.427,0.247,0.446,0.396,0.381,0.200,0.172,north-northwest,6.9,No
2016/05/18,03:20,0.426,0.248,0.448,0.394,0.381,0.201,0.172,north-northwest,7.1,No
2016/05/18,03:30,0.429,0.247,0.447,0.395,0.380,0.200,0.172,north-northwest,6.7,No
2016/05/18,03:40,0.426,0.247,0.445,0.395,0.381,0.201,0.172,north,5.6,No
2016/05/18,03:50,0.430,0.248,0.449,0.394,0.382,0.201,0.172,north-northwest,6.4,No
2016/05/18,04:00,0.429,0.247,0.446,0.398,0.378,0.201,0.172,north-northwest,6.9,No
2016/05/18,04:10,0.428,0.247,0.446,0.395,0.381,0.201,0.172,north-northwest,6.6,No
2016/05/18,04:20,0.430,0.247,0.448,0.395,0.380,0.200,0.172,north,6.6,No
2016/05/18,04:30,0.427,0.248,0.447,0.395,0.380,0.200,0.173,north,6.7,No
2016/05/18,04:40,0.429,0.248,0.448,0.395,0.381,0.200,0.172,north,6.7,No
2016/05/18,04:50,0.430,0.248,0.448,0.397,0.381,0.201,0.172,north,7.6,No
2016/05/18,05:00,0.427,0.248,0.447,0.394,0.380,0.200,0.172,north,8.1,No
2016/05/18,05:10,0.429,0.247,0.450,0.394,0.382,0.201,0.172,north,8.9,No
2016/05/18,05:20,0.427,0.248,0.446,0.396,0.382,0.200,0.172,north,10.1,No
2016/05/18,05:30,0.427,0.248,0.446,0.395,0.380,0.200,0.171,north,8.7,No
2016/05/18,05:40,0.431,0.246,0.449,0.395,0.381,0.201,0.171,north,8.5,No
2016/05/18,05:50,0.428,0.247,0.446,0.396,0.379,0.199,0.171,north,8.1,No
2016/05/18,06:00,0.428,0.245,0.446,0.394,0.380,0.201,0.171,north,7.8,No
2016/05/18,06:10,0.428,0.248,0.447,0.398,0.378,0.201,0.172,north,6.7,No
2016/05/18,06:20,0.426,0.247,0.445,0.395,0.383,0.201,0.171,north,6.9,No
2016/05/18,06:30,0.430,0.247,0.450,0.395,0.380,0.202,0.171,north-northeast,5.2,No
2016/05/18,06:40,0.426,0.246,0.445,0.395,0.384,0.202,0.171,north,5.5,No
2016/05/18,06:50,0.431,0.247,0.448,0.394,0.381,0.201,0.173,north,5.9,No
2016/05/18,07:00,0.427,0.248,0.441,0.397,0.385,0.201,0.171,north,4.2,No
2016/05/18,07:10,0.429,0.246,0.446,0.394,0.382,0.200,0.170,north,3.9,No
2016/05/18,07:20,0.426,0.248,0.442,0.395,0.384,0.201,0.171,north,3.5,No
2016/05/18,07:30,0.430,0.247,0.443,0.392,0.381,0.202,0.172,north-northeast,3.9,No
2016/05/18,07:40,0.427,0.248,0.446,0.391,0.382,0.202,0.171,north-northeast,4.7,No
2016/05/18,07:50,0.430,0.248,0.442,0.395,0.379,0.201,0.173,north,4.7,No
2016/05/18,08:00,0.427,0.247,0.444,0.392,0.384,0.201,0.172,north-northeast,5.0,No
2016/05/18,08:10,0.432,0.249,0.447,0.393,0.378,0.199,0.173,north-northeast,8.1,No
2016/05/18,08:20,0.428,0.247,0.447,0.395,0.384,0.200,0.173,north-northeast,10.0,No
2016/05/18,08:30,0.432,0.248,0.450,0.392,0.383,0.201,0.172,north-northeast,7.2,No
2016/05/18,08:40,0.429,0.249,0.446,0.390,0.380,0.202,0.173,north,6.7,No
2016/05/18,08:50,0.427,0.248,0.450,0.392,0.384,0.201,0.174,north,6.9,No
2016/05/18,09:00,0.433,0.249,0.446,0.395,0.381,0.200,0.172,north,8.2,No
2016/05/18,09:10,0.427,0.250,0.452,0.394,0.382,0.201,0.173,north-northeast,11.7,No
2016/05/18,09:20,0.432,0.247,0.448,0.392,0.385,0.202,0.174,north-northeast,12.0,No
2016/05/18,09:30,0.429,0.249,0.451,0.397,0.381,0.200,0.173,north-northeast,9.2,No
2016/05/18,09:40,0.429,0.248,0.447,0.398,0.386,0.201,0.174,north-northeast,8.9,No
2016/05/18,09:50,0.432,0.250,0.448,0.393,0.385,0.202,0.173,north-northeast,7.6,No
2016/05/18,10:00,0.428,0.250,0.447,0.391,0.381,0.201,0.173,north,9.8,No
2016/05/18,10:10,0.432,0.248,-,0.394,0.387,0.202,0.173,north-northeast,8.1,No
2016/05/18,10:20,0.433,0.250,-,0.401,0.385,0.203,0.175,north-northeast,9.3,No
2016/05/18,10:30,0.427,0.249,-,0.396,0.381,0.202,0.173,north-northeast,9.2,No
2016/05/18,10:40,0.435,0.250,-,0.392,0.388,0.201,0.174,north-northeast,8.2,No
2016/05/18,10:50,0.432,0.249,-,0.395,0.384,0.203,0.175,north-northeast,9.4,No
2016/05/18,11:00,0.429,0.249,-,0.400,0.382,0.202,0.175,north-northeast,7.4,No
2016/05/18,11:10,0.436,0.251,-,0.398,0.387,0.202,0.173,north-northeast,8.3,No
2016/05/18,11:20,0.430,0.250,-,0.396,0.383,0.203,0.175,north-northeast,8.2,No
2016/05/18,11:30,0.431,0.250,-,0.393,0.385,0.202,0.174,north,7.6,No
2016/05/18,11:40,0.434,0.251,-,0.396,0.386,0.202,0.173,north-northeast,7.7,No
2016/05/18,11:50,0.429,0.248,-,0.400,0.384,0.204,0.175,north-northeast,8.1,No
2016/05/18,12:00,0.434,0.250,-,0.399,0.384,0.203,0.174,north-northeast,6.9,No
2016/05/18,12:10,0.434,0.250,-,0.397,0.386,0.202,0.173,north-northeast,7.1,No
2016/05/18,12:20,0.431,0.248,-,0.394,0.386,0.203,0.174,northeast,7.5,No
2016/05/18,12:30,0.435,0.251,-,0.399,0.381,0.203,0.175,northeast,5.5,No
2016/05/18,12:40,0.433,0.250,-,0.401,0.384,0.203,0.175,northeast,3.2,No
2016/05/18,12:50,0.431,0.248,-,0.398,0.389,0.204,0.174,north-northeast,4.3,No
2016/05/18,13:00,0.436,0.249,-,0.396,0.387,0.203,0.176,northeast,3.7,No
2016/05/18,13:10,0.431,0.252,-,0.396,0.382,0.203,0.175,north-northeast,3.1,No
2016/05/18,13:20,0.433,0.249,-,0.396,0.381,0.202,0.176,north-northeast,3.3,No
2016/05/18,13:30,0.435,0.249,-,0.401,0.388,0.204,0.174,northeast,3.2,No
2016/05/18,13:40,0.430,0.252,-,0.401,0.387,0.203,0.175,northeast,2.8,No
2016/05/18,13:50,0.431,0.251,-,0.399,0.385,0.203,0.175,east-northeast,2.8,No
2016/05/18,14:00,0.437,0.249,-,0.397,0.383,0.202,0.175,east-northeast,2.3,No
2016/05/18,14:10,0.432,0.249,-,0.396,0.382,0.203,0.175,east,3.0,No
2016/05/18,14:20,0.429,0.251,-,0.396,0.384,0.205,0.176,east-northeast,3.3,No
2016/05/18,14:30,0.433,0.250,-,0.399,0.389,0.205,0.175,east-northeast,2.5,No
2016/05/18,14:40,0.433,0.250,-,0.402,0.388,0.204,0.175,east-northeast,2.7,No
2016/05/18,14:50,0.428,0.253,-,0.401,0.383,0.204,0.176,east-southeast,0.9,No
2016/05/18,15:00,0.434,0.252,-,0.400,0.383,0.204,0.177,east-southeast,0.8,No
2016/05/18,15:10,0.436,0.249,-,0.405,0.380,0.204,0.174,-,CALM,No
2016/05/18,15:20,0.433,0.252,0.454,0.403,0.385,0.204,0.175,-,CALM,No
2016/05/18,15:30,0.438,0.251,0.453,0.403,0.390,0.203,0.176,-,CALM,No
2016/05/18,15:40,0.434,0.250,0.451,0.404,0.387,0.205,0.177,-,CALM,No
2016/05/18,15:50,0.435,0.251,0.452,0.398,0.386,0.205,0.176,-,CALM,No
2016/05/18,16:00,0.435,0.252,0.460,0.405,0.383,0.204,0.177,south,0.5,No
2016/05/18,16:10,0.433,0.251,0.453,0.402,0.382,0.204,0.177,-,CALM,No
2016/05/18,16:20,0.437,0.253,0.456,0.403,0.387,0.204,0.177,-,CALM,No
2016/05/18,16:30,0.437,0.253,0.458,0.405,0.391,0.203,0.176,east-southeast,0.9,No
2016/05/18,16:40,0.431,0.253,0.453,0.401,0.387,0.203,0.177,southeast,0.8,No
2016/05/18,16:50,0.437,0.251,0.459,0.405,0.383,0.204,0.176,east,0.8,No
2016/05/18,17:00,0.432,0.253,0.453,0.399,0.383,0.204,0.177,-,CALM,No
2016/05/18,17:10,0.435,0.252,0.457,0.403,0.390,0.204,0.176,-,CALM,No
2016/05/18,17:20,0.438,0.252,0.455,0.404,0.387,0.205,0.177,north-northwest,0.5,No
2016/05/18,17:30,0.432,0.252,0.452,0.402,0.384,0.205,0.177,-,CALM,No
2016/05/18,17:40,0.438,0.252,0.457,0.405,0.384,0.206,0.176,southwest,0.8,No
2016/05/18,17:50,0.434,0.252,0.451,0.401,0.392,0.204,0.178,west-northwest,0.6,No
2016/05/18,18:00,0.436,0.251,0.457,0.406,0.387,0.205,0.176,west-southwest,0.6,No
2016/05/18,18:10,0.435,0.253,0.453,0.400,0.387,0.204,0.176,-,CALM,No
2016/05/18,18:20,0.435,0.252,0.454,0.404,0.390,0.205,0.176,south,0.7,No
2016/05/18,18:30,0.436,0.253,0.454,0.401,0.388,0.204,0.177,-,CALM,No
2016/05/18,18:40,0.435,0.253,0.455,0.403,0.391,0.205,0.177,-,CALM,No
2016/05/18,18:50,0.437,0.251,0.455,0.400,0.388,0.203,0.176,east-northeast,0.7,No
2016/05/18,19:00,0.437,0.254,0.454,0.407,0.389,0.204,0.176,east,0.8,No
2016/05/18,19:10,0.437,0.250,0.455,0.401,0.389,0.205,0.176,east-southeast,0.8,No
2016/05/18,19:20,0.436,0.253,0.453,0.405,0.388,0.204,0.177,east-southeast,0.9,No
2016/05/18,19:30,0.437,0.251,0.455,0.402,0.391,0.205,0.177,east,1.0,No
2016/05/18,19:40,0.438,0.252,0.455,0.404,0.388,0.203,0.177,east,0.7,No
2016/05/18,19:50,0.435,0.252,0.454,0.403,0.389,0.205,0.177,east-northeast,0.7,No
2016/05/18,20:00,0.439,0.252,0.456,0.405,0.387,0.204,0.178,north-northeast,0.7,No
2016/05/18,20:10,0.435,0.254,0.452,0.405,0.390,0.205,0.176,north-northeast,1.1,No
2016/05/18,20:20,0.438,0.251,0.457,0.404,0.387,0.206,0.177,north-northwest,0.7,No
2016/05/18,20:30,0.434,0.253,0.454,0.404,0.390,0.205,0.177,west-northwest,1.0,No
2016/05/18,20:40,0.437,0.252,0.457,0.402,0.387,0.205,0.177,north-northwest,0.9,No
2016/05/18,20:50,0.435,0.252,0.455,0.404,0.388,0.205,0.177,north,1.1,No
2016/05/18,21:00,0.436,0.252,0.456,0.402,0.387,0.205,0.177,north,1.1,No
2016/05/18,21:10,0.437,0.253,0.454,0.406,0.387,0.205,0.176,north,1.1,No
2016/05/18,21:20,0.436,0.253,0.456,0.404,0.390,0.204,0.177,north,1.3,No
2016/05/18,21:30,0.437,0.251,0.455,0.403,0.386,0.205,0.176,north,1.9,No
2016/05/18,21:40,0.433,0.253,0.454,0.404,0.388,0.205,0.176,north,1.9,No
2016/05/18,21:50,0.438,0.251,0.458,0.403,0.386,0.205,0.177,north,2.6,No
2016/05/18,22:00,0.434,0.251,0.455,0.407,0.387,0.204,0.177,north-northeast,2.6,No
2016/05/18,22:10,0.439,0.253,0.456,0.402,0.386,0.205,0.177,north,3.0,No
2016/05/18,22:20,0.435,0.252,0.454,0.403,0.386,0.203,0.177,north-northeast,3.4,No
2016/05/18,22:30,0.437,0.252,0.456,0.405,0.388,0.205,0.177,north-northeast,4.2,No
2016/05/18,22:40,0.435,0.252,0.454,0.403,0.387,0.204,0.177,north,5.3,No
2016/05/18,22:50,0.435,0.252,0.455,0.405,0.388,0.204,0.177,north-northeast,5.7,No
2016/05/18,23:00,0.438,0.251,0.456,0.401,0.385,0.206,0.177,north,5.0,No
2016/05/18,23:10,0.435,0.253,0.455,0.404,0.388,0.204,0.177,north,5.0,No
2016/05/18,23:20,0.437,0.252,0.457,0.405,0.387,0.204,0.176,north,5.4,No
2016/05/18,23:30,0.436,0.252,0.454,0.402,0.387,0.205,0.177,north,4.8,No
2016/05/18,23:40,0.436,0.252,0.454,0.405,0.389,0.204,0.177,north,5.7,No
2016/05/18,23:50,0.438,0.251,0.458,0.401,0.386,0.205,0.177,north,6.2,No
